Find STARLINK-37386

NORAD ID: 70563 Constellation: starlink operational
LEOCIRCULARRETROGRADE

实时位置

正在加载3D地球...

关于 STARLINK-37386

正在加载描述...

即将过境

Passes for default location (London). Set your location on the main map for personalized predictions.

高度历史

Loading altitude history...

两行轨道根数

1 70563C 26097D 26121.90465278 -.00872680 00000+0 -12954-2 0 1210
2 70563 97.2859 316.5676 0007449 258.4058 128.1897 16.05288838 19
Epoch: May 1, 2026 • Age: 30 hours